Starlink 11514

operational
NORAD ID: 62514 Int'l Des: 2025-004 Owner: SPXS Country: US Constellation: starlink
LEOCIRCULAR

Über Starlink 11514

Beschreibung wird geladen...

Live-Position

3D-Globus wird geladen...

Nächste Überflüge

Höhenverlauf

Altitude vs Time

uPlot chart will show altitude changes over time

Zweizeiliger Elementsatz

1 62514U 25004D 25308.13915396 .00221806 00000-0 16816-2 0 9997
2 62514 42.9977 107.4230 0001449 300.6386 59.4338 15.70907831 47463
Epoch: 4. Nov. 2025 • Age: 14 hours

Aktueller Status

Höhe 357.3 km
Geschwindigkeit 7.70 km/s
Subsatellitenpunkt 31.20°N, 65.01°W
Startdatum 8. Jan. 2025
Alter 0.8 years
Typ internet

Technische Details

Klassifizierung Payload
Masse 960.00 kg
Trockenmasse 910.00 kg
Gesamtmasse 960.00 kg
Länge 0.30 m
Durchmesser 4.10 m
Spannweite 29.00 m
Form Box + pan
Hersteller SPXS
Bus-Typ Starlink V2MD
Phasenstatus In Orbit
Besitzer/Staat SPXS/US

Große Konstellationen

Loading constellations...